| time (UTC) | temp C | wind direction | speed KPH | gust KPH | rain 1hr cm | rain 24hr cm | rain mn cm | humidity % | barometer mb |
| 20260906104538 | 21 | 90 | 0.0 | 0.0 | 0.00 | 0.00 | 0.00 | 94 | 1010.6 |
| 20260906103037 | 21 | 90 | 0.0 | 0.0 | 0.00 | 0.00 | 0.00 | 94 | 1010.8 |
| 20260906101530 | 21 | 90 | 0.0 | 1.6 | 0.00 | 0.00 | 0.00 | 95 | 1010.4 |
| 20260906100033 | 21 | 80 | 0.0 | 8.0 | 0.00 | 0.00 | 0.00 | 95 | 1010.0 |
| 20260906094552 | 21 | 63 | 0.0 | 6.4 | 0.00 | 0.03 | 0.00 | 95 | 1010.0 |
| 20260906093041 | 21 | 30 | 0.0 | 3.2 | 0.00 | 0.03 | 0.00 | 95 | 1009.9 |
| 20260906091529 | 21 | 360 | 0.0 | 3.2 | 0.00 | 0.03 | 0.00 | 95 | 1009.9 |
| 20260906090031 | 21 | 360 | 0.0 | 0.0 | 0.00 | 0.03 | 0.00 | 95 | 1009.7 |
| 20260906084526 | 20 | 360 | 0.0 | 0.0 | 0.00 | 0.03 | 0.00 | 94 | 1009.4 |
| 20260906083041 | 21 | 360 | 0.0 | 0.0 | 0.00 | 0.03 | 0.00 | 94 | 1009.4 |
| 20260906081532 | 21 | 360 | 0.0 | 0.0 | 0.00 | 0.03 | 0.00 | 95 | 1009.1 |
| 20260906080032 | 21 | 360 | 0.0 | 3.2 | 0.00 | 0.03 | 0.00 | 94 | 1009.2 |
| 20260906074528 | 20 | 355 | 0.0 | 6.4 | 0.00 | 0.03 | 0.00 | 94 | 1009.2 |
| 20260906073026 | 20 | 319 | 0.0 | 4.8 | 0.00 | 0.03 | 0.00 | 94 | 1009.1 |
| 20260906071523 | 20 | 312 | 0.0 | 0.0 | 0.00 | 0.03 | 0.00 | 93 | 1009.3 |
| 20260906070019 | 20 | 312 | 0.0 | 0.0 | 0.00 | 0.03 | 0.00 | 93 | 1009.4 |
| 20260906064518 | 21 | 312 | 0.0 | 0.0 | 0.00 | 0.10 | 0.00 | 93 | 1009.6 |
| 20260906063019 | 21 | 75 | 0.0 | 0.0 | 0.00 | 0.10 | 0.00 | 93 | 1009.6 |
| 20260906061516 | 21 | 75 | 0.0 | 0.0 | 0.00 | 0.10 | 0.00 | 92 | 1009.6 |
| 20260906060015 | 21 | 75 | 0.0 | 0.0 | 0.00 | 0.10 | 0.00 | 92 | 1009.4 |
| 20260906054513 | 21 | 75 | 0.0 | 0.0 | 0.00 | 0.10 | 0.00 | 92 | 1009.6 |
| 20260906053012 | 21 | 75 | 0.0 | 0.0 | 0.00 | 0.10 | 0.00 | 91 | 1009.6 |
| 20260906051509 | 21 | 75 | 0.0 | 0.0 | 0.00 | 0.10 | 0.00 | 91 | 1009.6 |
| 20260906050008 | 21 | 75 | 0.0 | 0.0 | 0.00 | 0.10 | 0.00 | 91 | 1009.8 |
| 20260906044508 | 22 | 75 | 0.0 | 0.0 | 0.00 | 0.10 | 0.00 | 91 | 1009.7 |
| 20260906043005 | 22 | 75 | 0.0 | 0.0 | 0.00 | 0.10 | 0.00 | 91 | 1009.9 |
| 20260906041502 | 22 | 75 | 0.0 | 0.0 | 0.00 | 0.10 | 0.00 | 90 | 1010.0 |
| 20260906040105 | 22 | 75 | 0.0 | 0.0 | 0.00 | 0.10 | 0.00 | 90 | 1010.0 |
| 20260906034603 | 22 | 75 | 0.0 | 6.4 | 0.00 | 0.10 | 0.10 | 90 | 1010.1 |
| 20260906033058 | 22 | 142 | 1.6 | 3.2 | 0.00 | 0.10 | 0.10 | 90 | 1010.0 |
| 20260906031557 | 22 | 292 | 0.0 | 3.2 | 0.00 | 0.10 | 0.10 | 90 | 1009.9 |
| 20260906024600 | 22 | 292 | 0.0 | 1.6 | 0.00 | 0.10 | 0.10 | 88 | 1009.8 |
| 20260906023056 | 22 | 292 | 0.0 | 0.0 | 0.00 | 0.10 | 0.10 | 89 | 1009.7 |
| 20260906021555 | 22 | 292 | 0.0 | 0.0 | 0.00 | 0.10 | 0.10 | 87 | 1009.6 |
| 20260906020055 | 23 | 292 | 0.0 | 0.0 | 0.00 | 0.10 | 0.10 | 87 | 1009.5 |
| 20260906014633 | 23 | 292 | 0.0 | 0.0 | 0.00 | 0.10 | 0.10 | 86 | 1009.6 |
| 20260906013100 | 23 | 292 | 0.0 | 0.0 | 0.00 | 0.10 | 0.10 | 86 | 1009.4 |
| 20260906011602 | 23 | 292 | 0.0 | 0.0 | 0.00 | 0.10 | 0.10 | 85 | 1009.2 |
| 20260906010054 | 23 | 292 | 0.0 | 1.6 | 0.00 | 0.10 | 0.10 | 83 | 1009.1 |
| 20260906004603 | 23 | 292 | 0.0 | 0.0 | 0.00 | 0.10 | 0.10 | 82 | 1009.0 |
| 20260906003103 | 24 | 292 | 0.0 | 0.0 | 0.00 | 0.10 | 0.10 | 80 | 1009.0 |
| 20260906001551 | 24 | 292 | 0.0 | 0.0 | 0.00 | 0.10 | 0.10 | 77 | 1008.8 |
| 20260906000051 | 25 | 292 | 0.0 | 0.0 | 0.00 | 0.10 | 0.10 | 75 | 1008.7 |
| 20260905234554 | 25 | 292 | 0.0 | 0.0 | 0.00 | 0.10 | 0.10 | 75 | 1008.3 |
| 20260905233050 | 26 | 300 | 0.0 | 0.0 | 0.00 | 0.10 | 0.10 | 74 | 1008.5 |
| 20260905231549 | 26 | 238 | 0.0 | 1.6 | 0.00 | 0.10 | 0.10 | 73 | 1008.3 |
| 20260905230049 | 27 | 245 | 0.0 | 1.6 | 0.00 | 0.10 | 0.10 | 74 | 1008.2 |
| 20260905224549 | 27 | 245 | 0.0 | 3.2 | 0.00 | 0.10 | 0.10 | 72 | 1008.3 |
| 20260905223048 | 27 | 230 | 0.0 | 3.2 | 0.00 | 0.10 | 0.10 | 71 | 1008.4 |
| 20260905221607 | 27 | 225 | 0.0 | 8.0 | 0.00 | 0.10 | 0.10 | 70 | 1008.5 |
| 20260905220047 | 28 | 235 | 0.0 | 3.2 | 0.00 | 0.10 | 0.10 | 70 | 1008.6 |
| 20260905214546 | 28 | 186 | 4.8 | 14.5 | 0.00 | 0.10 | 0.10 | 66 | 1008.7 |
| 20260905213058 | 29 | 192 | 0.0 | 0.0 | 0.00 | 0.10 | 0.10 | 68 | 1008.7 |
| 20260905211547 | 29 | 192 | 0.0 | 1.6 | 0.00 | 0.10 | 0.10 | 66 | 1008.7 |
| 20260905210052 | 30 | 207 | 4.8 | 8.0 | 0.00 | 0.10 | 0.10 | 61 | 1008.8 |
| 20260905204548 | 29 | 329 | 1.6 | 8.0 | 0.00 | 0.10 | 0.10 | 64 | 1008.4 |
| 20260905203046 | 28 | 293 | 4.8 | 9.7 | 0.00 | 0.10 | 0.10 | 68 | 1008.3 |
| 20260905201558 | 27 | 355 | 0.0 | 8.0 | 0.00 | 0.10 | 0.10 | 75 | 1008.5 |
| 20260905200046 | 27 | 211 | 1.6 | 8.0 | 0.00 | 0.10 | 0.10 | 77 | 1008.6 |
| 20260905194543 | 26 | 237 | 3.2 | 11.3 | 0.00 | 0.10 | 0.10 | 79 | 1008.7 |
| 20260905193049 | 26 | 227 | 0.0 | 9.7 | 0.00 | 0.10 | 0.10 | 80 | 1009.2 |
| 20260905191541 | 26 | 244 | 0.0 | 3.2 | 0.00 | 0.10 | 0.10 | 78 | 1008.2 |
| 20260905190040 | 26 | 82 | 4.8 | 8.0 | 0.00 | 0.10 | 0.10 | 77 | 1007.9 |
| 20260905184543 | 26 | 334 | 4.8 | 14.5 | 0.00 | 0.10 | 0.10 | 76 | 1008.5 |
| 20260905183036 | 28 | 327 | 1.6 | 4.8 | 0.00 | 0.10 | 0.10 | 70 | 1008.9 |
| 20260905181537 | 30 | 332 | 3.2 | 30.6 | 0.00 | 0.10 | 0.10 | 62 | 1009.0 |
| 20260905180038 | 33 | 350 | 3.2 | 8.0 | 0.00 | 0.10 | 0.10 | 57 | 1008.7 |
| 20260905174534 | 33 | 290 | 0.0 | 12.9 | 0.00 | 0.10 | 0.10 | 57 | 1008.7 |
| 20260905173031 | 34 | 288 | 6.4 | 12.9 | 0.00 | 0.10 | 0.10 | 55 | 1009.1 |
| 20260905171528 | 33 | 9 | 3.2 | 12.9 | 0.00 | 0.10 | 0.10 | 57 | 1009.6 |
| 20260905170026 | 33 | 10 | 4.8 | 12.9 | 0.00 | 0.10 | 0.10 | 58 | 1009.9 |
| 20260905164525 | 33 | 348 | 1.6 | 11.3 | 0.00 | 0.10 | 0.10 | 58 | 1010.2 |
| 20260905163026 | 33 | 217 | 1.6 | 11.3 | 0.00 | 0.10 | 0.10 | 57 | 1010.2 |
| 20260905161523 | 33 | 328 | 3.2 | 11.3 | 0.00 | 0.10 | 0.10 | 60 | 1010.3 |
| 20260905160020 | 33 | 233 | 0.0 | 8.0 | 0.00 | 0.10 | 0.10 | 59 | 1010.5 |
| 20260905154518 | 32 | 5 | 8.0 | 11.3 | 0.00 | 0.10 | 0.10 | 60 | 1010.5 |
| 20260905153015 | 32 | 355 | 6.4 | 11.3 | 0.00 | 0.10 | 0.10 | 63 | 1010.7 |
| 20260905151511 | 32 | 229 | 0.0 | 8.0 | 0.00 | 0.10 | 0.10 | 66 | 1010.7 |
| 20260905150007 | 31 | 198 | 0.0 | 6.4 | 0.00 | 0.10 | 0.10 | 68 | 1010.8 |
| 20260905144505 | 30 | 207 | 3.2 | 8.0 | 0.00 | 0.10 | 0.10 | 68 | 1010.9 |
| 20260905143003 | 30 | 18 | 1.6 | 8.0 | 0.00 | 0.10 | 0.10 | 69 | 1010.9 |
| 20260905141600 | 29 | 355 | 0.0 | 3.2 | 0.00 | 0.10 | 0.10 | 75 | 1010.7 |
| 20260905140053 | 28 | 269 | 0.0 | 9.7 | 0.00 | 0.10 | 0.10 | 77 | 1010.7 |
| 20260905134552 | 28 | 316 | 0.0 | 0.0 | 0.00 | 0.10 | 0.10 | 81 | 1010.8 |
| 20260905133045 | 27 | 275 | 0.0 | 0.0 | 0.00 | 0.10 | 0.10 | 85 | 1010.8 |
| 20260905131541 | 25 | 273 | 0.0 | 0.0 | 0.00 | 0.10 | 0.10 | 90 | 1010.6 |
| 20260905130036 | 25 | 206 | 0.0 | 0.0 | 0.00 | 0.10 | 0.10 | 92 | 1010.8 |
| 20260905124534 | 23 | 205 | 0.0 | 1.6 | 0.00 | 0.10 | 0.10 | 94 | 1010.9 |
| 20260905123030 | 23 | 328 | 0.0 | 0.0 | 0.00 | 0.10 | 0.10 | 95 | 1010.9 |
| 20260905121527 | 22 | 328 | 0.0 | 0.0 | 0.00 | 0.10 | 0.10 | 95 | 1010.9 |
| 20260905120028 | 22 | 328 | 0.0 | 0.0 | 0.00 | 0.10 | 0.10 | 95 | 1010.8 |
| 20260905114526 | 21 | 329 | 0.0 | 0.0 | 0.00 | 0.10 | 0.10 | 95 | 1010.7 |
| 20260905113028 | 21 | 329 | 0.0 | 0.0 | 0.00 | 0.10 | 0.10 | 95 | 1010.4 |
| 20260905111525 | 21 | 329 | 0.0 | 0.0 | 0.00 | 0.10 | 0.10 | 94 | 1010.4 |
| 20260905110023 | 21 | 329 | 0.0 | 0.0 | 0.00 | 0.10 | 0.10 | 94 | 1010.3 |